Zurück zum Katalog

NAVSTAR 83

USA 440

AktivNavigationHEO
NORAD 62339·PAYLOAD·🇺🇸 United States

Gestartet Dec 17, 2024 von Cape Canaveral Space Force Station

Loading…

Nächste Überflüge (nächste 24 Stunden)

TLE

AktuellSource: CelesTrak SupGP

Epoche: Sep 17, 2026, 16:38 UTC

1 62339C 24242A   26260.69312500  .00000000  00000+0  00000+0 0  2608
2 62339  54.8029 330.4287 0019494   1.5723  84.3504  2.00574272    19

Verfolge NAVSTAR 83 in Echtzeit mit AllMySat

Download on the App Store